Location: Unspecified
(45.4615°N, 74.0512°W)
Time: 21:49:51
(UTC-04:00)

ISS - Visible Passes

Search period start: 23 April 2019 00:00
Search period end: 03 May 2019 00:00
Orbit: 408 x 410 km, 51.6° (Epoch: 24 April)

Date Brightness Start Highest point End Pass type
(mag) Time Alt. Az. Time Alt. Az. Time Alt. Az.
29 Apr -1.5 04:47:08 10° S 04:49:26 18° SE 04:51:45 10° E visible
30 Apr -1.0 03:58:21 10° SE 03:58:48 10° SE 03:59:14 10° ESE visible
01 May -2.9 04:41:27 14° SSW 04:43:59 39° SE 04:47:06 10° ENE visible
02 May -2.2 03:52:31 21° SSE 03:53:14 23° SE 03:55:55 10° E visible
